Location: Unspecified
(0.0000°N, 0.0000°E)
Time: 19:00:32
(UTC+00:00)

CERISE - Visible Passes

Search period start: 17 May 2026 00:00
Search period end: 27 May 2026 00:00
Orbit: 460 x 467 km, 98.3° (Epoch: 17 May)

Date Brightness Start Highest point End Pass type
(mag) Time Alt. Az. Time Alt. Az. Time Alt. Az.
18 May 8.8 19:50:21 10° N 19:50:37 12° N 19:50:37 12° N visible
21 May 8.8 19:50:26 10° N 19:50:37 11° N 19:50:37 11° N visible
24 May 8.8 19:50:21 10° N 19:50:27 11° N 19:50:27 11° N visible
